TimeCST,TemperatureF,Dew PointF,Humidity,Sea Level PressureIn,VisibilityMPH,Wind Direction,Wind SpeedMPH,Gust SpeedMPH,PrecipitationIn,Events,Conditions,WindDirDegrees,DateUTC
12:52 AM,62.1,55.9,80,30.00,10.0,SE,6.9,-,N/A,,Clear,140,2013-02-04 06:52:00
1:52 AM,62.1,57.0,84,29.98,10.0,SE,9.2,-,N/A,,Clear,140,2013-02-04 07:52:00
2:52 AM,63.0,57.0,81,29.95,10.0,SE,9.2,-,N/A,,Clear,140,2013-02-04 08:52:00
4:52 AM,62.6,59.0,88,29.92,10.0,SE,5.8,-,N/A,,Overcast,140,2013-02-04 10:52:00
5:00 AM,62.6,59.0,88,29.92,10.0,SE,5.8,-,N/A,,Overcast,140,2013-02-04 11:00:00
5:52 AM,60.8,57.2,88,29.92,10.0,East,3.5,-,N/A,,Mostly Cloudy,90,2013-02-04 11:52:00
6:37 AM,62.6,59.0,88,29.93,10.0,East,4.6,-,N/A,,Overcast,80,2013-02-04 12:37:00
6:52 AM,62.1,57.9,86,29.94,10.0,Calm,Calm,-,N/A,,Mostly Cloudy,0,2013-02-04 12:52:00
7:52 AM,61.0,57.9,90,29.94,10.0,Calm,Calm,-,N/A,,Scattered Clouds,0,2013-02-04 13:52:00
8:11 AM,64.4,60.8,88,29.95,10.0,Calm,Calm,-,N/A,,Mostly Cloudy,0,2013-02-04 14:11:00
8:23 AM,66.2,60.8,83,29.95,10.0,Calm,Calm,-,N/A,,Partly Cloudy,0,2013-02-04 14:23:00
8:52 AM,70.0,63.0,78,29.95,10.0,South,8.1,-,N/A,,Clear,170,2013-02-04 14:52:00
9:52 AM,73.9,61.0,64,29.94,10.0,South,20.7,27.6,N/A,,Clear,170,2013-02-04 15:52:00
10:52 AM,77.0,60.1,56,29.91,10.0,South,24.2,29.9,N/A,,Clear,170,2013-02-04 16:52:00
11:52 AM,81.0,55.9,42,29.89,10.0,South,23.0,28.8,N/A,,Clear,180,2013-02-04 17:52:00
12:52 PM,82.0,57.9,44,29.86,10.0,South,18.4,25.3,N/A,,Clear,190,2013-02-04 18:52:00
1:52 PM,82.9,59.0,44,29.82,10.0,South,16.1,23.0,N/A,,Clear,180,2013-02-04 19:52:00
2:52 PM,82.9,59.0,44,29.79,10.0,SSW,13.8,-,N/A,,Clear,210,2013-02-04 20:52:00
3:52 PM,82.9,59.0,44,29.78,10.0,SSW,12.7,-,N/A,,Clear,200,2013-02-04 21:52:00
4:52 PM,81.0,61.0,50,29.78,10.0,SSE,15.0,-,N/A,,Clear,150,2013-02-04 22:52:00
5:52 PM,77.0,61.0,58,29.79,10.0,SSE,17.3,-,N/A,,Clear,160,2013-02-04 23:52:00
6:52 PM,73.0,62.1,68,29.81,10.0,SSE,17.3,-,N/A,,Clear,160,2013-02-05 00:52:00
7:52 PM,70.0,60.1,71,29.83,10.0,SSE,10.4,-,N/A,,Clear,160,2013-02-05 01:52:00
8:52 PM,68.0,62.1,81,29.86,10.0,SSE,9.2,-,N/A,,Clear,150,2013-02-05 02:52:00
9:52 PM,66.9,63.0,87,29.87,10.0,SSE,9.2,-,N/A,,Clear,160,2013-02-05 03:52:00
10:52 PM,66.0,63.0,90,29.88,10.0,South,6.9,-,N/A,,Clear,170,2013-02-05 04:52:00
11:52 PM,64.4,62.6,94,29.87,10.0,SSE,5.8,-,N/A,,Clear,160,2013-02-05 05:52:00